Location: Warszawa
(52.2500°N, 21.0000°E)
Time: 13:11:51
(UTC+02:00)

Vanguard 2 - Pass Details

Date: 11 February 2023
Orbit: 553 x 2927 km, 32.9° (Epoch: 27 March)

Event Time Altitude Azimuth Distance (km) Brightness Sun altitude
Rises 23:51:27 0° 262° (W) 5,642 11.9 -51.9°
Enters shadow 23:51:46 - 261° (W) 5,585 11.9 -51.9°
Reaches altitude 10° 23:55:36 10° 251° (WSW) 4,954 - -51.9°
Maximum altitude 00:07:08 28° 201° (SSW) 4,255 - -51.8°
Drops below altitude 10° 00:20:29 10° 152° (SSE) 5,742 - -51.5°
Sets 00:25:52 0° 142° (SE) 6,669 - -51.3°
